Alpine, TX

12:06 AM CDT on September 22, 2017 (GMT -0500)
Alpine

Weather History for KE38 - October, 2012

Change the Weather History Date:

Friday, October 19, 2012

  Actual Average (KMRF) Record (KMRF)
Temperature  
Mean Temperature 65 °F -  
Max Temperature 83 °F 70 °F 86 °F (2016)
Min Temperature 47 °F 42 °F 30 °F (1999)
Growing Degree Days 15 (Base 50)    
Moisture  
Dew Point 39 °F    
Average Humidity 43    
Maximum Humidity 74    
Minimum Humidity 16    
Precipitation  
Precipitation 0.00 in - - ()
Sea Level Pressure  
Sea Level Pressure 30.11 in    
Wind  
Wind Speed 7 mph (SW)    
Max Wind Speed 14 mph    
Max Gust Speed 17 mph    
Visibility 10 miles    
Events      
Averages and records for this station are not official NWS values.
T = Trace of Precipitation, MM = Missing Value Source: NWS Daily Summary

Daily Weather History Graph

Daily Weather History Graph

Search for Another Location

Airport or City:

Trip Planner

Search our weather history database for the weather conditions in past years. The results will help you decide how hot, cold, wet, or windy it might be!

Date:

Astronomy

Oct. 19, 2012 Rise Set
Actual Time 7:59 AM CDT 7:18 PM CDT
Civil Twilight 7:35 AM CDT 7:43 PM CDT
Nautical Twilight 7:07 AM CDT 8:11 PM CDT
Astronomical Twilight 6:39 AM CDT 8:38 PM CDT
Moon 12:31 PM CDT (10/19) 11:13 PM CDT (10/19)
Length of Visible Light 12h 07m
Length of Day
11h 18m
Waxing Crescent, 24% of the Moon is Illuminated
Oct 19
Waxing Crescent
Oct 21
First Quarter
Oct 29
Full
Nov 6
Last Quarter
Nov 13
New

Hourly Weather History & Observations

Time (CDT) Temp. Dew Point Humidity Pressure Visibility Wind Dir Wind Speed Gust Speed Precip Events Conditions
1:35 AM 51.3 °F 40.1 °F 66% 30.14 in 10.0 mi SW 4.6 mph - N/A   Clear
1:55 AM 48.6 °F 40.1 °F 73% 30.14 in 10.0 mi Calm Calm - N/A   Clear
2:15 AM 48.6 °F 40.1 °F 73% 30.14 in 10.0 mi SW 4.6 mph - N/A   Clear
2:35 AM 48.0 °F 39.9 °F 74% 30.14 in 10.0 mi SW 8.1 mph - N/A   Clear
2:55 AM 50.0 °F 40.3 °F 69% 30.14 in 10.0 mi SW 6.9 mph - N/A   Clear
3:15 AM 50.0 °F 39.9 °F 68% 30.13 in 10.0 mi SW 8.1 mph - N/A   Clear
3:35 AM 49.8 °F 39.6 °F 68% 30.12 in 10.0 mi SW 5.8 mph - N/A   Clear
3:55 AM 48.4 °F 39.9 °F 73% 30.12 in 10.0 mi SW 8.1 mph - N/A   Clear
4:15 AM 48.4 °F 39.7 °F 72% 30.12 in 10.0 mi SW 9.2 mph - N/A   Clear
4:35 AM 48.7 °F 39.6 °F 71% 30.12 in 10.0 mi SW 5.8 mph - N/A   Clear
4:55 AM 47.3 °F 39.6 °F 74% 30.12 in 10.0 mi SSW 5.8 mph - N/A   Clear
5:15 AM 48.0 °F 39.7 °F 73% 30.12 in 10.0 mi SW 10.4 mph - N/A   Clear
5:35 AM 49.1 °F 39.6 °F 70% 30.12 in 10.0 mi SW 10.4 mph - N/A   Clear
5:55 AM 51.4 °F 39.4 °F 63% 30.12 in 10.0 mi SW 9.2 mph - N/A   Clear
6:15 AM 52.0 °F 39.2 °F 62% 30.12 in 10.0 mi SW 10.4 mph - N/A   Clear
6:35 AM 53.8 °F 39.0 °F 57% 30.12 in 10.0 mi SW 10.4 mph - N/A   Clear
6:55 AM 54.0 °F 38.8 °F 57% 30.13 in 10.0 mi SW 10.4 mph - N/A   Clear
7:15 AM 53.6 °F 38.7 °F 57% 30.13 in 10.0 mi SSW 10.4 mph - N/A   Clear
7:35 AM 53.1 °F 38.5 °F 58% 30.13 in 10.0 mi SW 9.2 mph - N/A   Clear
7:55 AM 54.3 °F 38.3 °F 55% 30.14 in 10.0 mi SSW 8.1 mph - N/A   Clear
8:15 AM 54.7 °F 38.3 °F 54% 30.14 in 10.0 mi SW 9.2 mph - N/A   Clear
8:35 AM 56.1 °F 38.5 °F 52% 30.14 in 10.0 mi SW 4.6 mph - N/A   Clear
8:55 AM 58.1 °F 38.8 °F 49% 30.15 in 10.0 mi SW 8.1 mph - N/A   Clear
9:15 AM 62.1 °F 39.2 °F 43% 30.15 in 10.0 mi WSW 6.9 mph - N/A   Clear
9:35 AM 66.2 °F 39.2 °F 37% 30.16 in 10.0 mi WSW 6.9 mph - N/A   Clear
9:55 AM 68.9 °F 39.7 °F 35% 30.17 in 10.0 mi WSW 4.6 mph - N/A   Clear
10:15 AM 71.4 °F 39.9 °F 32% 30.17 in 10.0 mi SW 5.8 mph - N/A   Clear
10:35 AM 72.9 °F 39.6 °F 30% 30.17 in 10.0 mi SSW 9.2 mph - N/A   Clear
10:55 AM 73.8 °F 39.6 °F 29% 30.17 in 10.0 mi SW 10.4 mph - N/A   Clear
11:15 AM 75.7 °F 38.5 °F 26% 30.17 in 10.0 mi SSW 11.5 mph 16.1 mph N/A   Clear
11:35 AM 76.1 °F 37.6 °F 25% 30.17 in 10.0 mi SW 11.5 mph - N/A   Clear
11:55 AM 77.2 °F 36.9 °F 23% 30.17 in 10.0 mi SW 10.4 mph - N/A   Clear
12:15 PM 78.4 °F 36.1 °F 22% 30.16 in 10.0 mi SSW 10.4 mph - N/A   Clear
12:35 PM 79.0 °F 36.3 °F 21% 30.16 in 10.0 mi SSW 8.1 mph - N/A   Clear
12:55 PM 79.7 °F 36.1 °F 21% 30.15 in 10.0 mi SSW 6.9 mph - N/A   Clear
1:15 PM 80.2 °F 36.0 °F 20% 30.14 in 10.0 mi South 8.1 mph - N/A   Clear
1:35 PM 81.5 °F 36.3 °F 20% 30.13 in 10.0 mi SSW 8.1 mph 16.1 mph N/A   Clear
1:55 PM 82.0 °F 36.1 °F 19% 30.12 in 10.0 mi WSW 9.2 mph - N/A   Clear
2:15 PM 82.4 °F 35.1 °F 18% 30.11 in 10.0 mi SW 5.8 mph - N/A   Clear
2:35 PM 82.8 °F 33.8 °F 17% 30.09 in 10.0 mi WSW 8.1 mph - N/A   Clear
2:55 PM 83.3 °F 33.6 °F 17% 30.08 in 10.0 mi SW 5.8 mph - N/A   Clear
3:15 PM 83.8 °F 32.4 °F 16% 30.08 in 10.0 mi SW 6.9 mph - N/A   Clear
3:55 PM 83.1 °F 40.3 °F 22% 30.07 in 10.0 mi NE 6.9 mph - N/A   Clear
4:15 PM 82.8 °F 41.0 °F 23% 30.06 in 10.0 mi ENE 12.7 mph 17.3 mph N/A   Clear
4:35 PM 81.9 °F 41.4 °F 24% 30.07 in 10.0 mi NE 12.7 mph - N/A   Clear
4:55 PM 81.1 °F 41.5 °F 24% 30.07 in 10.0 mi NE 13.8 mph 17.3 mph N/A   Clear
5:15 PM 81.0 °F 40.8 °F 24% 30.06 in 10.0 mi NE 10.4 mph - N/A   Clear
5:55 PM 79.9 °F 39.9 °F 24% 30.06 in 10.0 mi NE 9.2 mph - N/A   Clear
6:15 PM 79.5 °F 40.3 °F 25% 30.06 in 10.0 mi ENE 8.1 mph - N/A   Clear
6:35 PM 78.8 °F 40.3 °F 25% 30.06 in 10.0 mi NE 6.9 mph - N/A   Clear
6:55 PM 77.4 °F 40.3 °F 26% 30.07 in 10.0 mi ENE 3.5 mph - N/A   Clear
7:15 PM 74.7 °F 41.5 °F 30% 30.07 in 10.0 mi NNE 3.5 mph - N/A   Clear
7:35 PM 71.6 °F 41.4 °F 33% 30.08 in 10.0 mi NNW 5.8 mph - N/A   Clear
7:55 PM 67.1 °F 41.9 °F 40% 30.08 in 10.0 mi West 8.1 mph - N/A   Clear
8:15 PM 65.5 °F 41.4 °F 41% 30.08 in 10.0 mi WNW 6.9 mph - N/A   Clear
8:35 PM 64.4 °F 41.2 °F 43% 30.08 in 10.0 mi SSE 6.9 mph - N/A   Clear
8:55 PM 63.3 °F 41.9 °F 46% 30.09 in 10.0 mi South 3.5 mph - N/A   Clear
9:15 PM 60.4 °F 42.6 °F 52% 30.09 in 10.0 mi South 4.6 mph - N/A   Clear
9:35 PM 62.6 °F 42.1 °F 47% 30.09 in 7.0 mi SSW 9.2 mph - N/A   Clear
9:55 PM 61.9 °F 44.4 °F 53% 30.09 in 10.0 mi SSW 8.1 mph - N/A   Clear
10:15 PM 64.2 °F 44.4 °F 49% 30.09 in 10.0 mi SW 6.9 mph - N/A   Clear
10:35 PM 63.3 °F 42.6 °F 47% 30.08 in 10.0 mi WSW 8.1 mph - N/A   Clear
10:55 PM 58.6 °F 40.3 °F 51% 30.09 in 10.0 mi SW 6.9 mph - N/A   Clear
11:15 PM 61.9 °F 40.5 °F 45% 30.08 in 10.0 mi SW 9.2 mph - N/A   Clear
11:35 PM 64.0 °F 40.8 °F 43% 30.08 in 10.0 mi SW 8.1 mph - N/A   Clear
11:55 PM 62.4 °F 40.3 °F 44% 30.08 in 10.0 mi WSW 8.1 mph - N/A   Clear